User: anonymous
Location: Mentone
(34.5413°N, 85.5351°W)
Time: 01:45:22
(UTC-05:00)
Language:

Tiros 1 despin weight - Orbit

View from above orbital plane
View from above orbital plane
View from above satellite
View from above satellite

Ground track
Ground track

The orbit data is extracted from the following two-line orbital elements,

1 00115U 60002D   14244.73473586  .00000843  00000-0  13540-3 0  4449
2 00115 048.1676 356.8063 0037072 292.8912 181.6713 14.80712123898982
Epoch (UTC): 01 September 2014 17:38:01
Eccentricity: 0.0037072
inclination: 48.1676°
perigee height: 601 km
apogee height: 653 km
right ascension of ascending node: 356.8063°
argument of perigee: 292.8912°
revolutions per day: 14.80712123
mean anomaly at epoch: 181.6713°
orbit number at epoch: 89898

The dashed part of the orbit path shows where the satellite is in the earth's shadow,  

DLR